Temp
82 80 77 71 62 62 56 62 70 67 69 74 77 74 69 68 67 59 73 76 77 77 79 81 82 83 83 83 83 83 83 83 83 83 83 84 83 83 83 83 83 83 83 83 83 83 83 83 83
81 79 74 67 57 52 56 68 67 70 73 75 75 74 69 64 71 68 70 77 78 78 78 80 82 83 83 83 83 83 84 84 83 83 83 83 83 83 83 83 83 83 83 83 83 83 83 83 83
81 81 68 61 57 54 57 67 69 74 78 75 71 74 70 65 71 72 75 78 77 76 77 81 82 83 83 83 83 83 84 84 83 84 84 84 84 83 84 84 83 83 83 83 83 83 83 82 83
78 74 70 62 60 65 66 69 73 73 75 75 72 65 71 76 74 74 78 78 74 74 76 81 83 83 83 83 83 83 83 83 83 83 83 83 84 84 84 84 83 83 83 83 83 82 83 82 83
75 70 61 60 63 69 72 75 75 71 72 73 73 64 65 73 76 77 77 78 75 74 77 80 83 83 83 83 83 83 83 83 83 83 84 84 84 83 83 84 84 83 82 83 83 82 83 83 83
68 68 60 56 64 71 73 76 74 71 71 71 69 66 65 74 74 75 78 76 77 76 77 79 83 83 83 83 83 83 83 83 83 83 83 84 84 84 83 83 83 83 84 83 83 83 83 83 84
67 65 61 62 64 68 73 78 72 71 71 70 74 62 64 69 74 76 74 74 77 78 77 78 79 81 84 83 83 83 83 83 83 84 83 83 83 83 83 83 83 83 83 83 84 83 83 83 83
71 67 63 63 65 65 75 78 78 75 72 80 77 62 62 69 76 74 73 72 74 76 77 76 77 78 78 79 83 83 83 83 83 83 83 83 83 84 84 83 83 83 84 84 83 83 83 83 83
76 64 60 64 68 69 77 74 80 82 76 79 78 72 72 75 75 72 71 71 72 75 74 75 76 76 76 77 80 83 83 83 83 83 83 82 77 80 82 81 82 84 84 84 84 83 82 82 83
70 61 66 73 73 73 77 76 77 75 74 72 71 73 75 75 72 70 69 69 70 71 73 73 74 75 75 80 77 76 78 78 77 77 76 75 76 76 79 80 83 83 83 83 84 84 82 82 77
73 66 73 76 78 79 77 76 80 73 69 73 68 69 73 72 71 71 71 71 70 72 73 74 73 74 75 76 75 75 75 76 76 76 76 76 75 76 77 76 77 75 79 77 78 79 74 76 76
71 76 77 77 79 78 75 78 75 77 75 79 75 74 73 71 71 71 72 72 71 72 73 74 74 73 74 75 75 75 74 75 75 76 76 74 74 74 74 74 75 74 75 75 75 75 75 75 76
74 76 78 78 79 78 80 76 75 76 79 79 77 75 73 72 72 74 75 75 73 72 74 74 74 73 74 74 74 75 74 75 75 75 75 74 74 73 74 74 74 74 74 74 74 74 74 74 74
77 76 76 78 77 77 76 75 77 76 78 76 75 73 74 73 74 74 75 74 73 74 74 76 74 74 74 74 74 74 74 75 74 74 74 75 74 73 74 74 74 75 74 74 74 74 74 74 74
77 71 74 74 74 74 74 69 70 76 77 74 74 74 74 75 76 75 77 76 76 75 76 75 75 76 74 74 75 74 75 77 74 75 75 76 75 74 74 73 74 75 76 76 75 75 75 74 75
72 69 61 71 74 75 72 61 70 76 76 71 73 74 75 75 76 78 79 78 77 77 75 76 81 78 76 75 74 74 75 75 75 76 76 76 76 76 75 74 75 76 75 76 75 74 75 75 75
65 57 62 69 74 74 70 63 71 75 75 73 73 73 75 74 76 79 80 80 79 78 76 75 77 77 76 75 74 75 76 75 75 75 76 77 77 77 75 75 76 76 74 75 75 73 74 74 73
60 58 64 65 71 72 67 65 70 74 75 74 73 74 74 75 76 80 81 82 80 79 76 76 77 76 75 74 74 74 75 74 73 75 75 78 77 78 76 75 76 76 74 74 74 73 73 74 74
68 63 63 69 74 71 67 67 70 72 74 73 71 72 73 75 79 81 81 82 79 78 76 76 75 74 74 72 72 72 74 74 75 74 76 77 76 78 76 75 76 75 74 74 74 72 73 73 74
66 62 62 69 73 69 67 68 72 71 73 75 74 74 75 75 75 76 79 79 79 77 76 76 76 73 75 77 73 74 74 74 75 75 75 76 78 78 77 76 75 75 73 73 72 72 71 72 73
61 60 62 64 69 70 67 65 65 69 72 74 76 78 78 77 75 73 76 77 78 76 76 76 76 74 75 74 73 73 74 74 74 74 74 75 78 78 77 76 74 74 73 72 73 71 72 71 72
56 71 71 69 63 57 65 55 60 63 67 69 75 75 77 77 76 75 76 77 78 78 79 78 76 74 74 73 73 73 72 72 73 73 73 75 77 77 77 76 75 73 72 72 73 73 71 71 70
68 73 67 67 58 57 61 56 61 61 63 67 72 76 78 79 78 76 75 79 79 80 79 78 74 73 74 74 74 73 72 73 72 72 72 73 75 76 77 76 74 72 72 73 72 71 70 70 70
72 66 62 57 56 50 55 58 60 62 65 68 72 76 78 78 80 78 78 78 78 76 76 75 72 72 73 73 73 72 72 72 70 70 70 71 73 74 76 76 73 73 72 72 72 71 70 69 69
64 55 47 47 48 49 48 55 61 70 71 72 73 75 77 78 79 76 75 76 76 75 74 73 71 71 72 73 73 73 73 72 72 71 71 69 72 73 74 74 73 73 73 72 71 70 70 69 69
58 57 50 44 44 50 48 54 63 71 71 73 76 77 76 76 78 77 77 78 77 78 74 74 71 71 71 73 73 73 73 73 73 72 71 72 73 75 75 74 73 73 74 73 71 70 69 68 67
58 56 58 49 42 48 51 60 69 69 69 71 72 75 74 77 78 79 79 80 79 78 76 75 72 72 71 73 74 73 73 73 73 73 73 73 74 76 75 74 73 73 73 73 71 70 69 68 67
62 66 56 50 45 42 50 53 57 63 65 67 68 68 72 75 77 79 79 80 80 81 80 75 73 72 72 72 72 75 75 74 74 73 72 72 73 75 75 74 74 73 73 72 71 69 69 67 67
60 55 52 53 49 48 46 53 60 62 63 66 68 69 68 72 75 78 77 80 79 79 78 76 72 72 71 72 72 72 74 75 74 74 74 73 72 73 74 74 74 73 72 72 70 69 68 67 66
59 60 56 52 50 45 48 55 66 63 65 68 69 71 71 71 74 76 78 77 77 77 76 74 72 71 73 72 72 72 73 74 75 75 75 75 74 74 74 74 74 73 72 72 70 68 69 67 66
MSLP
1007.68 1008.12 1008.41 1008.49 1009.11 1009.26 1009.63 1009.44 1009.12 1009.53 1009.78 1009.67 1009.96 1010.46 1011.45 1012.22 1012.60 1014.11 1014.42 1014.49 1014.56 1014.78 1014.73 1014.85 1015.11 1015.29 1015.59 1015.72 1015.84 1016.17 1016.45 1016.41 1016.72 1017.07 1017.04 1017.03 1017.13 1017.44 1017.82 1017.90 1018.04 1018.09 1018.35 1018.34 1018.29 1018.37 1018.39 1018.53 1018.62
1008.05 1008.49 1008.41 1008.51 1009.43 1009.95 1009.79 1009.15 1009.09 1009.16 1009.35 1009.64 1010.35 1010.93 1011.62 1012.81 1013.16 1013.84 1014.30 1014.54 1014.68 1014.85 1015.06 1015.18 1015.32 1015.48 1015.91 1016.11 1016.10 1016.39 1016.72 1016.78 1016.96 1017.36 1017.27 1017.43 1017.47 1017.67 1017.88 1018.09 1018.23 1018.28 1018.39 1018.57 1018.43 1018.52 1018.58 1018.81 1018.91
1007.90 1007.98 1008.56 1008.48 1009.40 1009.63 1009.40 1009.11 1009.12 1009.19 1009.23 1009.75 1010.81 1011.42 1012.39 1013.57 1013.87 1014.06 1014.14 1014.63 1014.90 1015.24 1015.38 1015.47 1015.64 1015.93 1016.17 1016.31 1016.50 1016.70 1016.91 1017.12 1017.26 1017.54 1017.53 1017.73 1017.77 1017.90 1018.11 1018.19 1018.32 1018.39 1018.37 1018.48 1018.56 1018.63 1018.69 1018.87 1019.05
1007.81 1008.11 1008.44 1008.54 1009.11 1008.93 1008.99 1009.06 1009.11 1009.24 1009.64 1010.15 1011.09 1012.17 1013.07 1013.41 1013.89 1014.13 1014.53 1014.79 1015.43 1015.63 1015.71 1015.79 1015.84 1016.06 1016.37 1016.58 1016.91 1017.02 1017.25 1017.29 1017.49 1017.61 1017.75 1017.83 1017.93 1018.02 1018.22 1018.31 1018.35 1018.51 1018.49 1018.51 1018.53 1018.57 1018.69 1019.06 1019.07
1007.51 1007.88 1008.55 1008.96 1009.11 1008.93 1008.82 1009.00 1009.04 1009.42 1010.01 1010.72 1011.17 1012.99 1013.77 1014.17 1014.11 1014.52 1014.88 1015.32 1015.60 1015.93 1016.09 1016.09 1016.20 1016.33 1016.56 1016.89 1017.11 1017.31 1017.38 1017.41 1017.60 1017.76 1017.92 1017.89 1018.06 1018.25 1018.33 1018.45 1018.44 1018.50 1018.67 1018.67 1018.60 1018.68 1018.79 1018.92 1019.13
1007.55 1008.04 1009.08 1009.55 1009.27 1009.06 1008.87 1008.97 1009.23 1009.81 1010.37 1011.10 1011.97 1013.04 1014.46 1014.65 1014.63 1015.03 1015.25 1015.59 1015.65 1016.14 1016.22 1016.25 1016.45 1016.58 1016.81 1017.06 1017.27 1017.46 1017.56 1017.59 1017.63 1017.89 1018.06 1018.12 1018.17 1018.33 1018.41 1018.53 1018.56 1018.73 1018.69 1018.65 1018.63 1018.78 1018.85 1018.86 1019.20
1007.55 1008.33 1009.15 1009.30 1009.39 1008.98 1008.88 1008.85 1009.43 1009.71 1010.40 1011.07 1011.72 1013.43 1014.76 1015.03 1015.04 1015.33 1015.65 1015.91 1015.94 1016.24 1016.42 1016.52 1016.67 1016.79 1016.91 1017.16 1017.31 1017.51 1017.65 1017.85 1017.83 1017.92 1018.25 1018.21 1018.34 1018.47 1018.46 1018.52 1018.57 1018.63 1018.70 1018.59 1018.60 1018.86 1019.01 1019.09 1019.25
1007.17 1008.30 1009.15 1009.05 1009.02 1008.83 1008.63 1008.81 1009.28 1009.47 1010.36 1010.82 1011.27 1013.13 1014.50 1014.75 1015.13 1015.63 1016.07 1016.35 1016.57 1016.61 1016.65 1016.88 1016.99 1017.04 1017.11 1017.28 1017.29 1017.60 1017.87 1018.03 1017.95 1018.07 1018.39 1018.45 1018.52 1018.49 1018.47 1018.61 1018.57 1018.62 1018.57 1018.65 1018.71 1018.98 1019.22 1019.31 1019.40
1006.98 1008.28 1009.01 1008.72 1008.51 1008.44 1008.42 1008.67 1009.20 1009.39 1010.14 1010.79 1011.46 1012.26 1013.20 1014.48 1015.19 1015.91 1016.49 1016.81 1016.97 1017.05 1017.11 1017.13 1017.25 1017.39 1017.40 1017.63 1017.47 1017.53 1017.89 1018.12 1018.07 1018.35 1018.54 1018.49 1018.62 1018.62 1018.60 1018.60 1018.65 1018.55 1018.63 1018.63 1018.86 1018.85 1019.08 1019.39 1019.52
1007.37 1008.46 1008.61 1008.28 1008.17 1008.05 1008.27 1008.53 1009.05 1009.78 1010.37 1011.39 1012.27 1012.80 1013.72 1014.68 1015.41 1015.89 1016.31 1016.59 1016.91 1017.22 1017.40 1017.42 1017.49 1017.63 1017.73 1017.60 1017.77 1017.95 1018.10 1018.17 1018.37 1018.49 1018.67 1018.77 1018.75 1018.68 1018.66 1018.57 1018.54 1018.58 1018.52 1018.65 1018.71 1018.84 1018.87 1019.17 1019.54
1007.64 1008.15 1008.31 1008.29 1007.84 1007.95 1008.10 1008.57 1008.84 1009.72 1010.67 1011.11 1012.11 1013.08 1014.01 1014.81 1015.54 1015.95 1016.21 1016.52 1016.82 1017.21 1017.43 1017.43 1017.58 1017.74 1017.73 1017.80 1018.06 1018.12 1018.03 1018.29 1018.41 1018.51 1018.56 1018.75 1018.89 1018.75 1018.71 1018.75 1018.72 1018.77 1018.55 1018.78 1018.83 1018.99 1019.11 1019.36 1019.55
1007.43 1007.80 1007.97 1008.20 1008.14 1008.25 1008.52 1008.63 1008.98 1009.27 1009.86 1010.39 1011.76 1012.58 1013.81 1014.76 1015.15 1015.43 1015.88 1016.45 1016.76 1017.07 1017.24 1017.31 1017.43 1017.73 1017.88 1017.94 1017.94 1017.86 1018.11 1018.34 1018.50 1018.52 1018.63 1018.86 1018.87 1018.75 1018.69 1018.65 1018.74 1018.86 1018.82 1018.97 1019.12 1019.21 1019.25 1019.32 1019.39
1007.41 1007.70 1007.99 1008.03 1008.12 1008.43 1008.35 1008.57 1008.86 1009.61 1009.85 1010.84 1012.03 1013.02 1013.79 1014.45 1015.05 1015.50 1015.82 1016.27 1016.55 1016.74 1016.83 1016.99 1017.19 1017.54 1017.63 1017.82 1017.83 1017.80 1018.09 1018.33 1018.47 1018.61 1018.75 1018.85 1018.80 1018.73 1018.53 1018.69 1018.82 1018.82 1018.83 1018.91 1019.13 1019.28 1019.25 1019.26 1019.35
1007.68 1007.73 1008.07 1008.03 1008.46 1008.51 1008.73 1008.64 1008.53 1009.77 1010.24 1011.33 1012.15 1012.99 1013.64 1014.18 1014.65 1015.12 1015.40 1015.69 1016.13 1016.33 1016.53 1016.77 1017.00 1017.19 1017.39 1017.57 1017.70 1017.76 1017.97 1018.17 1018.37 1018.49 1018.47 1018.43 1018.44 1018.64 1018.63 1018.77 1018.72 1018.59 1018.61 1018.68 1018.95 1018.97 1019.09 1019.12 1019.28
1008.09 1008.35 1008.31 1008.38 1008.57 1008.71 1008.95 1008.98 1009.11 1009.57 1010.37 1011.39 1012.36 1013.00 1013.41 1013.76 1014.37 1014.43 1014.55 1014.98 1015.36 1015.83 1016.15 1016.45 1016.73 1016.89 1017.17 1017.18 1017.39 1017.70 1017.93 1018.03 1018.23 1018.26 1018.35 1018.14 1018.21 1018.39 1018.62 1018.82 1018.70 1018.43 1018.30 1018.51 1018.72 1018.82 1018.79 1018.86 1019.03
1008.71 1008.97 1009.27 1008.50 1008.62 1008.58 1008.87 1009.23 1009.76 1009.97 1010.48 1011.72 1012.33 1012.98 1013.37 1013.44 1013.49 1013.77 1014.06 1014.49 1014.94 1015.39 1015.86 1016.21 1016.57 1016.80 1016.90 1017.00 1017.13 1017.44 1017.73 1017.76 1017.99 1018.16 1018.07 1017.92 1018.06 1018.25 1018.55 1018.57 1018.44 1018.46 1018.47 1018.60 1018.69 1018.97 1018.94 1018.95 1019.04
1009.39 1009.47 1009.32 1008.73 1008.65 1008.71 1008.88 1009.24 1009.79 1010.09 1010.63 1011.42 1012.07 1012.56 1012.89 1013.23 1013.27 1013.31 1013.54 1013.96 1014.31 1014.81 1015.55 1016.05 1016.28 1016.41 1016.67 1016.76 1017.03 1017.21 1017.30 1017.63 1017.67 1017.82 1017.78 1017.74 1018.00 1018.14 1018.44 1018.49 1018.42 1018.59 1018.77 1018.71 1018.83 1019.17 1019.26 1019.31 1019.41
1009.19 1009.36 1008.99 1008.78 1008.59 1008.83 1009.01 1009.29 1009.83 1010.11 1010.51 1010.86 1011.41 1012.13 1012.47 1012.73 1012.57 1012.55 1012.94 1013.45 1013.94 1014.44 1015.14 1015.67 1015.99 1016.16 1016.53 1016.72 1016.97 1017.27 1017.44 1017.55 1017.55 1017.73 1017.87 1017.91 1018.02 1018.04 1018.28 1018.38 1018.41 1018.55 1018.88 1019.00 1019.06 1019.35 1019.47 1019.63 1019.90
1008.28 1008.73 1008.70 1008.27 1008.09 1008.43 1008.84 1009.06 1009.38 1009.83 1010.38 1010.81 1010.94 1011.21 1011.69 1011.91 1011.91 1012.15 1012.50 1013.06 1013.63 1014.18 1014.83 1015.26 1015.64 1015.94 1016.52 1016.89 1017.40 1017.65 1017.63 1017.49 1017.56 1017.82 1017.91 1017.89 1018.09 1017.91 1018.18 1018.28 1018.41 1018.57 1018.85 1019.09 1019.21 1019.52 1019.72 1019.97 1020.07
1007.98 1008.33 1008.47 1008.17 1008.21 1008.74 1008.89 1009.08 1008.86 1009.16 1009.17 1009.53 1010.09 1010.47 1010.67 1011.04 1011.53 1011.78 1012.23 1012.69 1013.08 1013.51 1014.19 1014.79 1015.09 1015.73 1016.15 1016.32 1016.77 1017.04 1017.35 1017.32 1017.29 1017.43 1017.67 1017.64 1017.64 1017.81 1018.02 1018.21 1018.47 1018.50 1018.86 1019.09 1019.31 1019.44 1019.91 1019.99 1020.02
1008.15 1008.21 1008.19 1008.56 1008.65 1008.95 1009.35 1008.97 1008.63 1008.70 1008.95 1009.37 1009.55 1009.59 1009.85 1010.27 1010.95 1011.49 1011.80 1012.15 1012.70 1013.25 1013.71 1014.22 1014.52 1015.14 1015.76 1016.19 1016.69 1017.16 1017.37 1017.37 1017.51 1017.47 1017.50 1017.55 1017.57 1017.72 1017.91 1018.11 1018.34 1018.51 1018.72 1019.06 1019.33 1019.33 1019.56 1019.95 1020.22
1008.17 1007.50 1008.12 1008.97 1009.51 1009.79 1009.97 1009.97 1008.77 1008.65 1008.78 1008.67 1008.71 1009.05 1009.25 1009.62 1010.21 1010.97 1011.54 1011.87 1012.19 1012.46 1013.12 1013.73 1014.31 1014.86 1015.43 1016.00 1016.43 1016.63 1016.81 1017.23 1017.35 1017.55 1017.63 1017.53 1017.60 1017.71 1017.75 1018.03 1018.24 1018.50 1018.68 1018.97 1019.25 1019.26 1019.43 1019.67 1020.17
1007.82 1007.79 1008.89 1009.70 1010.33 1010.57 1010.43 1010.80 1008.64 1008.64 1008.45 1007.90 1007.76 1007.89 1008.28 1008.71 1009.49 1010.07 1010.98 1011.07 1011.31 1012.12 1012.66 1013.29 1014.01 1014.49 1014.98 1015.56 1015.98 1016.30 1016.67 1016.89 1017.09 1017.46 1017.61 1017.76 1017.63 1017.61 1017.71 1017.93 1018.13 1018.55 1018.69 1018.87 1019.11 1019.40 1019.52 1019.63 1019.95
1007.66 1008.79 1010.14 1010.93 1011.47 1012.03 1011.08 1011.11 1008.93 1008.13 1007.41 1006.98 1007.04 1007.28 1007.62 1008.02 1008.64 1009.33 1009.81 1010.57 1011.29 1011.69 1012.31 1013.13 1013.86 1014.30 1014.77 1015.13 1015.61 1015.97 1016.45 1016.79 1017.14 1017.40 1017.70 1017.76 1017.75 1017.81 1017.77 1017.99 1018.21 1018.42 1018.54 1018.77 1019.09 1019.42 1019.61 1019.68 1019.87
1008.13 1009.81 1011.37 1012.69 1013.09 1012.53 1011.61 1011.16 1008.84 1006.96 1006.49 1006.58 1006.44 1006.76 1007.10 1007.52 1008.20 1008.82 1009.48 1009.98 1010.73 1011.36 1011.88 1012.66 1013.53 1014.01 1014.39 1014.92 1015.28 1015.50 1015.87 1016.39 1016.69 1016.95 1017.37 1017.73 1017.69 1017.71 1017.71 1017.94 1018.28 1018.49 1018.43 1018.69 1019.03 1019.33 1019.57 1019.88 1020.05
1008.21 1009.24 1010.93 1012.39 1013.59 1012.87 1012.15 1010.71 1007.93 1006.83 1006.65 1006.33 1006.47 1006.50 1006.87 1007.30 1007.69 1007.99 1008.51 1009.09 1009.76 1010.48 1011.29 1011.89 1012.72 1013.32 1013.95 1014.27 1014.55 1014.97 1015.41 1015.90 1016.35 1016.61 1016.95 1017.27 1017.41 1017.32 1017.36 1017.78 1018.16 1018.43 1018.49 1018.69 1019.07 1019.48 1019.77 1019.95 1020.26
1008.25 1009.24 1010.09 1011.83 1013.26 1012.91 1011.66 1009.61 1007.69 1007.05 1006.68 1006.25 1006.55 1006.71 1006.70 1006.82 1007.06 1007.17 1007.95 1008.31 1008.93 1009.73 1010.35 1011.01 1011.73 1012.57 1013.31 1013.91 1014.07 1014.50 1014.92 1015.40 1015.75 1016.24 1016.65 1016.84 1016.98 1017.09 1017.21 1017.46 1017.89 1018.08 1018.32 1018.57 1018.95 1019.41 1019.77 1019.89 1020.09
1006.90 1008.28 1010.13 1011.51 1012.95 1013.14 1011.87 1010.67 1009.16 1007.89 1007.29 1007.07 1006.90 1006.88 1006.91 1006.41 1006.64 1007.03 1007.31 1007.78 1008.42 1008.77 1009.47 1010.44 1011.01 1011.39 1012.57 1013.78 1014.35 1014.39 1014.22 1014.77 1015.23 1015.79 1016.23 1016.38 1016.55 1016.81 1016.96 1017.30 1017.61 1017.99 1018.18 1018.43 1018.91 1019.33 1019.59 1019.83 1019.91
1007.65 1008.47 1010.01 1011.15 1012.16 1012.29 1012.29 1010.60 1008.52 1008.09 1007.92 1007.76 1007.26 1006.65 1006.63 1006.69 1006.65 1006.65 1007.21 1007.40 1008.21 1008.91 1009.41 1009.86 1010.51 1011.57 1013.04 1013.78 1014.55 1014.28 1014.25 1014.34 1014.80 1015.20 1015.60 1015.90 1016.25 1016.49 1016.67 1017.06 1017.37 1017.79 1018.05 1018.27 1018.70 1019.11 1019.41 1019.68 1019.79
1006.65 1007.45 1008.80 1010.88 1012.15 1012.07 1011.55 1009.41 1008.09 1008.12 1008.16 1007.90 1007.50 1007.16 1006.67 1006.55 1006.70 1006.63 1006.89 1007.33 1008.00 1008.65 1009.23 1009.68 1010.45 1011.65 1012.78 1011.83 1013.50 1013.50 1013.85 1014.13 1014.29 1014.74 1014.97 1015.41 1015.79 1016.05 1016.38 1016.71 1017.04 1017.39 1017.53 1017.93 1018.41 1018.80 1019.16 1019.58 1019.81
Wind_Speed
12 7 2 2 6 6 3 2 4 6 5 1 4 5 6 7 3 6 5 7 7 5 6 8 14 16 16 15 15 15 15 16 15 15 14 14 13 11 10 11 11 10 6 7 7 7 8 9 9
7 7 0 2 7 4 3 3 4 2 5 12 7 5 7 5 5 10 8 9 7 6 5 7 13 14 16 15 15 14 14 14 14 12 13 11 10 9 9 8 8 9 6 4 5 5 6 7 8
10 6 3 4 4 3 4 3 7 9 6 4 6 6 4 3 8 8 8 12 8 5 5 10 14 14 14 14 14 13 12 13 12 11 11 10 9 8 7 7 6 6 5 4 4 5 5 6 7
5 1 2 6 3 4 4 5 5 7 7 7 9 8 5 6 5 5 15 12 8 5 5 11 14 13 14 14 13 12 11 10 10 11 10 10 8 8 6 6 6 5 4 5 5 5 4 4 7
1 2 5 4 4 3 5 5 2 4 5 5 2 4 6 3 9 15 13 11 11 6 4 7 11 12 13 12 11 11 10 11 9 7 8 9 9 7 6 6 6 5 4 5 5 4 5 6 9
3 3 6 3 4 3 3 5 3 5 6 7 8 5 3 9 14 10 11 9 9 8 5 5 10 10 12 11 11 11 9 10 10 7 7 7 9 9 7 5 4 4 3 4 5 5 7 6 8
6 5 3 3 2 2 3 3 4 5 7 5 7 6 3 4 8 9 6 5 7 5 5 4 5 7 10 10 10 9 9 8 8 7 6 7 5 7 8 6 5 4 4 4 6 6 6 6 6
5 5 3 2 4 2 5 4 4 5 6 5 9 7 7 6 10 9 7 6 4 3 4 3 3 3 4 4 8 8 7 7 7 7 6 5 5 5 6 4 4 4 5 4 2 5 4 5 6
2 5 1 1 4 4 7 5 2 5 9 2 2 6 10 16 13 10 7 4 3 3 2 2 3 2 3 3 4 6 6 7 8 6 7 5 2 1 2 4 4 5 6 5 4 4 4 3 5
5 4 2 0 1 3 6 8 7 6 5 5 10 15 19 16 13 12 11 9 6 5 3 3 3 3 3 2 1 2 2 1 1 2 2 2 3 3 3 4 6 8 10 7 7 6 0 1 2
2 2 1 3 1 3 5 5 4 13 1 5 13 17 17 15 10 8 8 6 7 4 4 5 3 2 3 2 2 2 1 1 2 3 2 2 2 2 2 2 2 2 5 0 0 1 2 2 2
3 2 3 2 3 5 3 2 5 12 6 10 17 21 16 15 13 13 10 7 7 6 6 6 6 4 5 3 3 3 2 2 2 3 3 1 2 3 3 2 3 3 1 0 1 1 3 4 3
4 2 3 4 4 2 1 1 4 4 10 17 16 17 16 13 11 8 6 6 6 8 8 7 7 6 5 5 3 3 3 2 3 3 2 3 3 3 2 1 3 2 2 2 2 2 3 4 5
3 3 5 7 6 3 4 1 5 5 16 18 18 16 14 13 13 8 8 8 9 7 8 7 8 7 6 6 5 4 3 3 3 3 4 4 3 2 2 3 3 3 3 2 3 3 3 3 4
3 4 8 1 2 3 1 3 3 11 15 18 16 14 14 13 11 13 12 11 9 7 7 8 7 8 8 8 6 4 3 4 4 3 5 5 4 4 3 3 3 3 2 3 3 2 2 1 3
4 4 2 3 4 4 1 4 3 7 16 14 15 13 13 13 17 14 12 11 9 8 9 7 8 10 10 8 5 3 4 4 3 4 4 6 5 4 3 2 3 1 0 1 1 0 1 2 1
4 2 3 5 6 3 1 1 7 7 10 13 14 15 14 12 14 14 13 12 10 11 8 8 8 9 9 6 4 4 5 4 4 3 4 4 4 4 2 2 1 1 2 2 1 3 1 2 4
4 2 3 4 4 2 1 1 6 11 11 13 11 13 14 15 18 15 15 13 10 10 9 8 8 7 7 3 2 1 1 2 3 2 3 3 2 3 3 2 1 2 2 2 3 3 3 3 4
2 4 4 4 5 5 6 3 9 12 11 11 9 9 9 14 14 16 14 14 11 10 10 12 10 7 6 3 3 2 2 2 2 3 3 3 2 3 3 2 2 2 3 2 2 3 3 2 2
2 0 4 3 3 1 1 8 8 11 18 18 17 14 14 8 8 9 12 12 14 14 12 12 12 8 8 7 3 3 3 2 2 3 3 4 2 2 3 3 3 3 3 3 3 3 2 1 1
2 4 3 2 2 2 4 7 4 4 5 8 12 14 14 16 11 9 12 14 13 13 14 14 14 11 10 6 4 2 2 2 1 1 1 2 3 3 4 3 3 4 3 3 2 3 4 3 1
3 7 5 4 3 2 3 7 4 1 6 8 14 12 13 13 8 8 11 12 15 15 12 12 11 10 8 8 6 6 5 4 3 2 2 2 3 4 4 4 4 4 3 4 2 2 3 3 3
8 5 1 3 4 3 2 3 8 2 6 12 14 17 16 14 12 13 14 16 17 12 13 11 8 8 8 9 8 6 4 3 2 3 4 3 2 4 3 4 5 4 3 4 4 3 3 2 3
6 6 9 5 4 2 3 5 11 3 3 5 7 13 13 12 12 12 12 9 10 8 8 8 8 7 7 8 8 8 8 6 4 3 4 3 2 2 3 3 4 4 4 4 3 3 3 4 3
7 7 4 5 4 7 3 3 12 8 5 6 9 11 12 11 12 11 14 13 11 13 12 9 9 9 9 8 8 8 8 7 8 6 4 4 3 3 5 5 4 3 3 4 4 4 3 3 2
5 9 8 5 5 5 1 7 9 4 8 4 1 6 9 10 11 13 17 15 15 15 13 13 13 10 10 11 11 7 7 5 5 5 4 4 5 4 4 5 4 4 4 4 4 2 2 4 2
5 3 5 9 4 3 3 9 10 5 6 7 6 7 9 10 12 14 13 15 15 14 15 16 14 11 11 12 9 8 7 7 7 6 5 4 4 4 6 6 6 6 6 6 5 3 3 3 3
4 7 4 4 5 4 5 6 7 5 6 9 8 6 6 7 9 11 11 14 12 13 13 10 13 15 10 7 7 8 10 8 6 6 7 7 5 5 6 6 6 6 6 6 5 4 3 4 3
2 1 7 6 4 8 3 9 7 8 3 6 5 2 4 5 7 11 9 9 8 7 8 10 10 9 7 2 6 7 8 8 7 7 7 7 5 6 7 7 7 7 7 7 6 5 5 5 4
4 8 7 7 5 2 4 9 4 7 6 6 4 6 5 6 3 7 7 7 9 8 8 11 9 12 15 15 11 9 7 7 8 9 8 7 8 7 8 7 8 9 8 8 8 7 6 6 5
Wind_Direction
142 134 129 101 55 65 30 25 143 107 163 61 123 103 104 37 30 141 130 115 126 120 115 116 114 112 113 112 111 113 119 120 124 132 137 139 138 140 143 138 133 125 126 122 123 120 117 112 113
143 160 202 84 80 71 325 347 93 114 119 95 70 63 49 64 55 119 113 140 131 134 125 115 115 114 117 116 115 118 121 122 126 139 136 137 141 144 146 146 146 138 141 134 133 135 136 129 127
164 217 359 81 105 131 145 61 119 126 122 95 107 51 55 58 110 124 129 136 126 123 112 125 120 124 116 114 116 121 120 125 127 137 133 141 148 155 161 160 169 162 165 168 177 168 166 149 136
191 130 343 76 62 18 104 156 137 109 82 63 109 76 68 109 123 134 135 132 121 120 118 134 130 123 121 122 125 122 128 126 133 136 137 139 149 150 157 169 173 169 181 184 181 193 179 152 148
63 78 50 67 41 45 68 119 358 80 93 74 76 86 88 43 111 131 133 137 141 134 159 137 135 132 125 123 128 136 141 136 126 137 147 151 154 144 153 165 162 162 163 161 165 164 122 137 147
59 98 49 32 46 59 58 90 65 59 88 126 78 92 75 129 129 139 137 143 140 149 149 151 148 144 138 139 141 143 137 135 138 153 146 164 155 153 161 163 138 140 164 153 143 121 126 138 144
107 75 139 102 63 77 141 119 66 107 103 75 115 84 85 137 134 132 114 114 141 154 138 159 158 163 151 147 144 144 138 149 144 142 163 153 161 143 157 158 153 154 212 191 155 125 125 143 151
94 85 50 108 176 166 148 104 149 87 56 110 154 152 167 173 131 105 98 110 136 142 139 148 161 160 138 155 155 153 149 149 146 156 181 168 176 171 158 161 177 194 205 219 100 118 124 139 170
89 60 55 180 148 153 162 122 240 94 127 106 60 120 136 136 121 118 120 127 142 173 146 139 160 148 145 186 184 153 174 177 162 188 192 187 167 209 219 182 217 223 231 210 179 179 150 165 180
74 89 205 185 41 123 166 139 157 110 143 63 74 96 124 135 144 153 170 175 171 184 195 198 197 164 177 197 46 136 222 161 145 215 209 173 206 221 212 225 233 244 236 225 199 190 14 186 166
97 127 130 12 341 38 126 123 131 132 226 175 152 136 144 145 155 167 185 180 183 179 183 197 191 186 206 225 167 206 193 203 238 229 224 221 251 253 271 254 269 297 272 356 0 58 179 231 205
54 100 119 118 16 42 23 113 123 152 192 137 154 144 147 158 173 183 190 175 172 178 194 189 179 194 217 225 195 198 201 214 232 230 223 214 256 261 253 237 247 262 257 246 82 187 194 235 234
33 350 65 8 41 10 347 90 183 143 117 124 134 145 158 172 175 180 180 175 184 192 195 198 171 191 206 217 222 210 212 212 231 233 246 227 255 267 303 318 277 243 239 198 227 225 234 228 225
324 348 19 15 29 331 349 105 104 121 125 133 148 160 169 173 180 173 181 187 189 191 202 195 183 184 192 209 214 218 197 213 230 237 227 228 225 264 277 270 261 261 205 198 221 229 224 226 213
80 46 352 354 92 275 293 23 344 135 132 145 159 169 175 183 179 200 199 195 189 200 191 199 189 180 194 212 215 204 201 203 222 236 245 240 218 228 236 246 255 253 228 202 223 258 268 239 208
58 40 1 274 100 266 172 239 169 152 140 153 159 175 189 193 195 203 204 200 185 184 189 188 198 193 199 208 215 191 200 216 216 219 224 230 227 205 230 250 246 280 21 253 263 329 323 343 13
12 216 234 308 184 280 26 242 166 166 160 161 170 182 193 204 209 210 206 202 189 186 180 193 196 192 198 212 202 219 204 209 223 207 226 233 213 182 203 234 253 71 46 76 107 65 39 37 63
206 206 269 243 191 231 279 258 154 177 170 185 184 182 194 206 213 208 203 201 190 186 178 192 202 193 181 175 121 70 242 206 215 229 234 241 209 157 181 188 168 136 118 74 70 87 54 74 75
144 170 222 250 168 147 230 181 188 184 182 191 200 199 204 198 212 205 200 196 185 182 178 189 193 184 158 158 154 186 216 213 181 181 223 194 212 174 177 145 171 139 112 96 104 95 82 73 93
278 310 286 286 89 133 93 261 218 185 203 195 194 201 213 219 166 193 190 181 184 185 188 186 199 178 182 189 163 158 165 211 158 159 187 189 139 193 163 187 194 167 126 114 110 128 127 95 31
245 224 247 181 65 200 315 278 216 213 183 205 214 207 208 207 199 182 180 181 184 183 189 190 192 181 180 175 122 84 92 70 93 310 351 207 219 199 173 191 171 148 138 138 132 142 150 137 37
257 187 251 102 79 222 69 283 286 165 209 205 212 205 209 207 184 171 186 182 188 197 192 195 185 180 179 165 174 172 179 161 182 143 176 193 225 201 179 187 169 158 142 145 164 150 138 130 143
222 154 250 100 96 31 347 33 270 209 225 227 210 210 209 204 191 180 186 192 195 183 192 191 177 180 176 175 191 184 162 153 134 127 156 182 207 217 196 191 159 168 165 151 146 132 131 120 135
130 77 45 56 82 354 194 131 286 250 220 269 198 209 207 193 193 189 190 175 186 172 161 167 174 182 185 178 189 185 184 169 154 161 170 221 207 238 207 194 176 179 169 150 142 132 140 141 131
82 68 7 27 18 225 313 107 238 295 267 229 212 197 196 187 194 175 175 183 176 181 177 166 172 190 181 195 192 192 196 181 190 177 177 186 195 199 201 181 180 187 167 149 145 151 149 154 147
174 149 151 196 183 235 147 240 258 277 323 290 114 195 183 186 192 186 186 189 186 189 178 179 181 184 187 193 204 197 189 186 190 193 175 194 205 193 169 181 176 173 168 150 150 123 137 120 95
185 145 172 100 7 57 233 292 315 337 357 23 58 176 197 198 191 189 186 191 189 184 189 186 182 186 188 203 195 197 187 190 193 193 189 196 192 190 183 182 178 174 173 166 161 159 169 153 137
138 157 85 17 131 214 286 286 241 322 311 340 9 355 289 231 184 186 191 190 194 191 188 181 192 189 180 182 208 211 200 199 185 166 198 203 196 193 186 183 178 176 176 169 170 166 168 165 143
111 167 54 112 119 159 201 263 213 238 266 275 296 310 334 284 219 174 196 182 177 180 182 185 192 166 88 24 213 208 214 198 181 189 201 202 186 200 196 186 179 181 181 178 175 179 175 180 164
148 171 138 125 227 97 148 273 206 245 245 246 252 340 348 352 329 172 169 149 161 173 178 193 165 130 154 229 205 203 202 194 193 206 203 188 202 199 202 183 188 188 185 179 181 181 182 188 186